Regional Weather Roundup
Issued by NWS

Home | Current Version | Previous Version | Text Only | Print | Product List | Glossary On
Versions: 1 2 3 4 5 6 7 8 9 10 11 12 13 14 15 16 17 18 19 20 21 22 23 24 25 26 27 28 29 30 31 32 33 34 35 36 37 38 39 40 41 42 43 44 45 46 47 48 49 50
000
ASUS43 KLMK 280110
RWRKY
KENTUCKY REGIONAL WEATHER ROUNDUP
NATIONAL WEATHER SERVICE LOUISVILLE KY
800 PM EST FRI FEB 27 2015

NOTE "FAIR" INDICATES FEW OR NO CLOUDS BELOW 12,000 FEET
WITH NO SIGNIFICANT WEATHER AND/OR OBSTRUCTIONS TO VISIBILITY.

KYZ001>023-026-027-061>063-070>075-280200-
WESTERN AND SOUTH CENTRAL KENTUCKY

CITY           SKY/WX    TMP DP  RH WIND       PRES   REMARKS
PADUCAH        CLOUDY    23   9  55 E9        30.61S WCI  13
HENDERSON      CLOUDY    21   9  58 N6        30.65R WCI  14
OWENSBORO      CLOUDY    23   9  55 N6        30.65R WCI  16
HOPKINSVILLE   CLOUDY    23  11  60 N12       30.60R WCI  12
BOWLING GREEN  MOCLDY    25   6  44 NE7       30.61R WCI  17
GLASGOW        MOCLDY    23   7  51 NE6       30.60R WCI  15
$$

KYZ024-025-028>034-038-045-046-053-280200-
NORTH CENTRAL KENTUCKY

CITY           SKY/WX    TMP DP  RH WIND       PRES   REMARKS
LOUISVILLE/SDF MOCLDY    23   3  42 N7        30.64R WCI  15
LOUISVILLE/LOU CLEAR     22   2  42 N5        30.64R WCI  16
FORT KNOX      MOCLDY    22   4  47 N6        30.59S WCI  14
$$

KYZ035>037-039>044-047>052-055>060-089>105-280200-
NORTHEAST KENTUCKY

CITY           SKY/WX    TMP DP  RH WIND       PRES   REMARKS
LEXINGTON      CLEAR     19   1  45 CALM      30.60R
COVINGTON      PTCLDY    16   1  51 N7        30.61R WCI   6
FRANKFORT      CLEAR     19   5  54 CALM      30.61R
$$

KYZ054-064>069-076>088-106>120-280200-
SOUTHEAST KENTUCKY

CITY           SKY/WX    TMP DP  RH WIND       PRES   REMARKS
JACKSON        CLEAR     20   5  52 N6        30.53R WCI  12
LONDON         CLEAR     23   6  48 N7        30.54R WCI  15
SOMERSET       CLEAR     21   9  58 N6        30.60R WCI  14
MIDDLESBORO    CLEAR     24  11  58 CALM      30.53R
MONTICELLO     CLEAR     21   9  60 NE8       30.60R WCI  11
$$




USA.gov is the U.S. government's official web portal to all federal, state and local government web resources and services.